[[{"header":{"parameterUnit":"m.s-1","parameterCategory":1,"la1":30.2991,"la2":30.254,"lo1":-89.0895,"lo2":-89.0444,"dy":0.0017,"dx":0.0017,"nx":28,"ny":28,"refTime":"2024-04-07T03:00:00:Z","depth":0,"parameterNumber":2,"parameterNumberName":"U-component_of_WINDS"},"data":[0,0,0,0,0,0,0,0,0,0,0,0,0,0,0,0,0,0,0,0,0,0,0,0,0,0,0,0,0,0,0,0,0,0,0,0,0,0,0,0,0,0,0,0,0,0,0,0,0,0,0,0,0,0,0,0,0,0,-1.7188,-1.7188,0,-1.7235,-1.7235,-1.7236,-1.7247,-1.7247,-1.7246,-1.7246,-1.7294,-1.7295,-1.7297,0,0,0,0,0,0,0,0,0,0,0,0,0,-1.7108,-1.7109,-1.7188,-1.7188,-1.7189,-1.7235,-1.7235,-1.7236,-1.7247,-1.7247,-1.7246,-1.7246,-1.7293,-1.7295,-1.7297,0,0,0,0,0,0,0,0,0,0,0,0,0,-1.7148,-1.711,-1.7188,-1.72,-1.7202,-1.7235,-1.7235,-1.7236,-1.7247,-1.7247,-1.7246,-1.7246,-1.7293,-1.7295,-1.7297,-1.7321,0,0,-1.7304,-1.7305,0,0,0,0,0,0,0,0,-1.7145,-1.715,-1.7198,-1.7199,-1.7201,-1.7235,-1.7225,-1.7265,-1.7247,-1.723,-1.7246,-1.7246,-1.7274,-1.7278,-1.7288,-1.7323,-1.7325,-1.7304,-1.7306,-1.7307,-1.7308,0,0,0,0,0,0,0,-1.7143,-1.7149,-1.7206,-1.7198,-1.72,-1.7203,-1.7208,-1.7232,-1.7254,-1.7231,-1.7232,-1.7238,-1.7275,-1.7286,-1.7289,-1.7326,-1.7304,-1.7306,-1.7308,-1.7309,-1.7384,-1.7385,0,0,0,0,0,0,-1.7138,-1.7146,-1.7205,-1.7208,-1.7171,-1.7205,-1.7211,-1.7224,-1.7254,-1.7258,-1.7238,-1.7238,-1.7282,-1.7286,-1.7291,-1.7321,-1.7307,-1.7309,-1.731,-1.7384,-1.7384,-1.7385,0,0,0,0,0,0,-1.7136,-1.7143,-1.7203,-1.7177,-1.7185,-1.7207,-1.7222,-1.7226,-1.7236,-1.7259,-1.7263,-1.7245,-1.7282,-1.7288,-1.7314,-1.7323,-1.731,-1.7312,-1.7383,-1.7384,-1.7385,-1.7382,0,0,0,0,0,0,-1.7134,-1.7142,-1.7151,-1.7177,-1.7187,-1.7225,-1.7223,-1.7227,-1.724,-1.7241,-1.7266,-1.727,-1.7282,-1.731,-1.7316,-1.7326,-1.7314,-1.7382,-1.7383,-1.7384,-1.7381,-1.7383,-1.7384,0,0,0,0,0,-1.7131,-1.7148,-1.7152,-1.7159,-1.7198,-1.7225,-1.7231,-1.7244,-1.7241,-1.725,-1.7265,-1.7269,-1.7321,-1.7313,-1.7319,-1.733,-1.7382,-1.7383,-1.7384,-1.7381,-1.7382,-1.7384,0,0,0,0,0,0,-1.7122,-1.7152,-1.7156,-1.7182,-1.7201,-1.7227,-1.7239,-1.7245,-1.7265,-1.7265,-1.728,-1.7286,-1.7311,-1.7323,-1.7313,-1.7355,-1.7351,-1.7354,-1.7346,-1.7348,-1.7349,-1.7346,-1.7316,0,0,0,0,0,-1.7123,-1.7143,-1.7168,-1.7189,-1.7198,-1.7217,-1.723,-1.7238,-1.7258,-1.7266,-1.7283,-1.7302,-1.7323,-1.7336,-1.7357,-1.7383,-1.7389,-1.7394,-1.7395,-1.7396,-1.7398,-1.7414,-1.7416,-1.7389,-1.7389,-1.7389,0,0,-1.7126,-1.7145,-1.7156,-1.7188,-1.7203,-1.7223,-1.7224,-1.7245,-1.726,-1.7269,-1.7295,-1.7308,-1.7331,-1.7358,-1.737,-1.7369,-1.7407,-1.7398,-1.7399,-1.74,-1.7416,-1.7418,-1.742,-1.739,-1.739,-1.739,0,0,-1.7141,-1.7157,-1.7177,-1.7193,-1.7217,-1.7229,-1.7234,-1.726,-1.7269,-1.7295,-1.7303,-1.7321,-1.7356,-1.7372,-1.7385,-1.7407,-1.7412,-1.7414,-1.742,-1.7435,-1.7437,-1.7439,-1.7447,-1.745,-1.7416,-1.7416,-1.7416,0,-1.7141,-1.7172,-1.7186,-1.7207,-1.7221,-1.7231,-1.7251,-1.7266,-1.7295,-1.7305,-1.7303,-1.7348,-1.7364,-1.7395,-1.74,-1.741,-1.7416,-1.741,-1.7436,-1.7438,-1.744,-1.7448,-1.7451,-1.7416,-1.7416,-1.7416,-1.7416,0,-1.7171,-1.7192,-1.7205,-1.7234,-1.7249,-1.7269,-1.7287,-1.7301,-1.7309,-1.7322,-1.7349,-1.7368,-1.7393,-1.7401,-1.7409,-1.7433,-1.7432,-1.7433,-1.7429,-1.7442,-1.745,-1.7453,-1.7416,-1.7416,-1.7416,-1.7416,0,0,-1.7181,-1.7218,-1.7223,-1.7236,-1.7264,-1.728,-1.7301,-1.7326,-1.7338,-1.7358,-1.7376,-1.7406,-1.7408,-1.7422,-1.7432,-1.7445,-1.7462,-1.7444,-1.7445,-1.7447,-1.7491,-1.7489,-1.7493,-1.7465,-1.7466,-1.7467,-1.7489,0,-1.72,-1.7238,-1.7252,-1.7283,-1.7303,-1.7314,-1.7332,-1.7351,-1.7364,-1.7383,-1.7398,-1.7419,-1.7419,-1.7428,-1.7441,-1.7457,-1.7471,-1.7455,-1.7482,-1.7483,-1.7476,-1.7497,-1.7496,-1.7515,-1.7492,-1.7492,-1.7493,0,-1.7226,-1.7247,-1.728,-1.7306,-1.7315,-1.7331,-1.7356,-1.7373,-1.7396,-1.7404,-1.7421,-1.743,-1.7453,-1.7448,-1.748,-1.7469,-1.7481,-1.7491,-1.7492,-1.7494,-1.7488,-1.75,-1.7522,-1.7525,-1.7498,-1.7497,-1.7497,0,-1.723,-1.7267,-1.7292,-1.7303,-1.7334,-1.7345,-1.7358,-1.738,-1.7394,-1.7415,-1.7425,-1.7448,-1.7461,-1.7479,-1.7494,-1.7489,-1.7525,-1.7521,-1.7532,-1.7532,-1.7539,-1.7538,-1.7563,-1.7547,-1.7547,-1.7547,-1.7547,0,-1.7249,-1.7269,-1.7294,-1.7309,-1.7332,-1.7348,-1.7371,-1.7385,-1.7404,-1.7423,-1.7433,-1.745,-1.7469,-1.7489,-1.7501,-1.7526,-1.7531,-1.7539,-1.7542,-1.7538,-1.7537,-1.7546,-1.7544,-1.7548,-1.7548,-1.7547,-1.7547,0,-1.7258,-1.7275,-1.7303,-1.733,-1.7337,-1.7353,-1.7376,-1.7392,-1.7406,-1.7429,-1.7435,-1.7457,-1.7481,-1.7498,-1.7528,-1.7536,-1.7563,-1.7566,-1.7555,-1.7557,-1.7567,-1.7566,-1.7598,-1.7604,-1.7584,-1.7584,-1.7584,0,-1.7268,-1.7284,-1.7313,-1.7326,-1.734,-1.7361,-1.7376,-1.7393,-1.7407,-1.7434,-1.7447,-1.7471,-1.7492,-1.7529,-1.7547,-1.7571,-1.7574,-1.7584,-1.7578,-1.7574,-1.7575,-1.7573,-1.7575,-1.7585,-1.7585,-1.7585,-1.7585,0,-1.7286,-1.7294,-1.7315,-1.7339,-1.7356,-1.7376,-1.7396,-1.7406,-1.7427,-1.7443,-1.7467,-1.7483,-1.7515,-1.7539,-1.7565,-1.7578,-1.7585,-1.7587,-1.7591,-1.7587,-1.758,-1.7584,-1.7558,-1.7586,-1.7586,-1.7586,-1.7586,-1.7586,-1.7296,-1.7311,-1.7334,-1.7357,-1.7374,-1.7392,-1.7408,-1.7424,-1.7445,-1.7472,-1.7481,-1.7506,-1.7529,-1.7564,-1.7578,-1.7599,-1.7598,-1.7604,-1.7605,-1.7606,-1.7606,-1.7578,-1.7603,-1.7603,-1.7603,-1.7603,-1.7603,0,-1.7314,-1.733,-1.7351,-1.7378,-1.7397,-1.7402,-1.7425,-1.7439,-1.7462,-1.7482,-1.7502,-1.7531,-1.7555,-1.7576,-1.76,-1.7613,-1.7617,-1.7619,-1.7618,-1.7621,-1.7605,-1.7599,-1.7615,-1.7615,-1.7615,-1.7615,-1.7615,-1.7615,-1.7326,-1.7351,-1.7362,-1.7396,-1.7411,-1.7436,-1.7449,-1.7466,-1.7483,-1.7514,-1.7534,-1.7548,-1.7568,-1.7595,-1.7617,-1.7623,-1.7631,-1.7633,-1.7639,-1.7623,-1.7622,-1.7621,-1.7615,-1.7634,-1.7634,-1.7653,-1.7653,-1.7653]},{"header":{"parameterUnit":"m.s-1","parameterCategory":1,"la1":30.2991,"la2":30.254,"lo1":-89.0895,"lo2":-89.0444,"dy":0.0017,"dx":0.0017,"nx":28,"ny":28,"refTime":"2024-04-07T03:00:00:Z","depth":0,"parameterNumber":3,"parameterNumberName":"V-component_of_WINDS"},"data":[0,0,0,0,0,0,0,0,0,0,0,0,0,0,0,0,0,0,0,0,0,0,0,0,0,0,0,0,0,0,0,0,0,0,0,0,0,0,0,0,0,0,0,0,0,0,0,0,0,0,0,0,0,0,0,0,0,0,4.673,4.6731,0,4.6805,4.6806,4.6806,4.6779,4.6777,4.6775,4.6774,4.6847,4.685,4.6854,0,0,0,0,0,0,0,0,0,0,0,0,0,4.6561,4.6564,4.673,4.6731,4.6732,4.6805,4.6806,4.6807,4.6779,4.6777,4.6775,4.6773,4.6846,4.685,4.6854,0,0,0,0,0,0,0,0,0,0,0,0,0,4.6635,4.6565,4.673,4.6727,4.6727,4.6804,4.6806,4.6807,4.6779,4.6777,4.6774,4.6772,4.6844,4.6849,4.6855,4.6938,0,0,4.6871,4.6873,0,0,0,0,0,0,0,0,4.663,4.6641,4.6726,4.6727,4.6728,4.678,4.6773,4.6851,4.678,4.676,4.6774,4.6771,4.6826,4.6833,4.6852,4.6941,4.6945,4.6871,4.6874,4.6877,4.6878,0,0,0,0,0,0,0,4.6625,4.6637,4.6759,4.6728,4.6729,4.6721,4.6729,4.6787,4.6806,4.6761,4.6759,4.6769,4.6826,4.6847,4.6854,4.6946,4.6871,4.6876,4.6879,4.6881,4.7108,4.711,0,0,0,0,0,0,4.662,4.6633,4.6757,4.6762,4.6672,4.6726,4.6735,4.6766,4.6805,4.6809,4.6771,4.6767,4.684,4.6848,4.6856,4.6957,4.6877,4.6882,4.6885,4.7105,4.7108,4.7111,0,0,0,0,0,0,4.6617,4.6632,4.6754,4.6697,4.6712,4.6732,4.6767,4.6769,4.679,4.6813,4.6816,4.6789,4.6838,4.6849,4.6918,4.696,4.6884,4.6889,4.7101,4.7106,4.711,4.716,0,0,0,0,0,0,4.6612,4.6631,4.6663,4.6698,4.6715,4.6816,4.6769,4.6772,4.6799,4.6795,4.6831,4.6834,4.6837,4.6911,4.6924,4.6965,4.6893,4.7098,4.7103,4.7108,4.7154,4.7165,4.7174,0,0,0,0,0,4.6606,4.6673,4.6665,4.668,4.6756,4.6818,4.6828,4.683,4.6803,4.6835,4.685,4.6833,4.6953,4.6918,4.6932,4.6976,4.7095,4.7102,4.7108,4.715,4.7163,4.7174,0,0,0,0,0,0,4.6641,4.6678,4.6669,4.6749,4.6781,4.6813,4.6854,4.6844,4.6883,4.6878,4.6878,4.6886,4.6958,4.6974,4.6935,4.706,4.702,4.7029,4.7047,4.7059,4.7069,4.7064,4.6897,0,0,0,0,0,4.6658,4.6706,4.6735,4.6803,4.682,4.6835,4.6861,4.6861,4.6893,4.6906,4.6926,4.6957,4.7002,4.7031,4.7074,4.7156,4.7164,4.7194,4.7204,4.7212,4.722,4.7266,4.7279,4.7132,4.7132,4.7132,0,0,4.6694,4.672,4.675,4.6811,4.6835,4.6885,4.6846,4.6899,4.6935,4.6914,4.6981,4.6997,4.7032,4.7109,4.7143,4.7124,4.7262,4.722,4.7226,4.723,4.7274,4.7288,4.73,4.7137,4.7136,4.7135,0,0,4.6784,4.6808,4.6868,4.6894,4.6932,4.6942,4.6956,4.6991,4.7001,4.7069,4.7054,4.7097,4.7173,4.7199,4.7222,4.7324,4.731,4.7337,4.7389,4.7434,4.7445,4.7455,4.7492,4.7505,4.7346,4.7346,4.7346,0,4.6823,4.6897,4.69,4.6955,4.6983,4.6967,4.7028,4.7052,4.7102,4.7121,4.7099,4.7196,4.7218,4.7301,4.7326,4.7345,4.7361,4.7333,4.7444,4.7454,4.7463,4.7498,4.7512,4.7349,4.7348,4.7348,4.7348,0,4.6944,4.6996,4.704,4.709,4.7122,4.7179,4.719,4.7222,4.7219,4.7231,4.7301,4.7327,4.7375,4.7394,4.7391,4.7477,4.7464,4.7443,4.7403,4.7481,4.7514,4.7527,4.7353,4.7352,4.7351,4.7351,0,0,4.7058,4.711,4.7126,4.7149,4.719,4.723,4.7286,4.7335,4.7363,4.7397,4.7445,4.7511,4.7492,4.7518,4.7518,4.7557,4.7636,4.7531,4.7532,4.755,4.7734,4.775,4.7765,4.7627,4.763,4.7632,4.7731,0,4.7152,4.7253,4.7257,4.7349,4.7397,4.7383,4.7433,4.7463,4.7476,4.7518,4.7531,4.7578,4.7549,4.7565,4.7603,4.7619,4.7673,4.7612,4.7671,4.7673,4.7664,4.7782,4.7799,4.7892,4.7744,4.7746,4.7747,0,4.7275,4.7315,4.7412,4.7448,4.7468,4.7513,4.7558,4.7598,4.7632,4.7639,4.7669,4.7663,4.7721,4.7679,4.7759,4.7717,4.7741,4.7753,4.7756,4.7762,4.7715,4.7792,4.7921,4.7935,4.7768,4.7766,4.7765,0,4.7349,4.7427,4.7496,4.7516,4.7559,4.7591,4.761,4.7642,4.7671,4.771,4.7729,4.7773,4.7798,4.7832,4.7839,4.7808,4.7918,4.7877,4.7925,4.7925,4.7949,4.7948,4.8085,4.7965,4.7964,4.7964,4.7964,0,4.7454,4.7514,4.753,4.7572,4.7639,4.7643,4.7709,4.7726,4.7754,4.7799,4.7789,4.7831,4.7837,4.788,4.7885,4.7951,4.7962,4.7968,4.7969,4.797,4.7969,4.7986,4.798,4.7968,4.7967,4.7966,4.7966,0,4.7548,4.7561,4.7635,4.767,4.768,4.7728,4.7758,4.7798,4.781,4.7867,4.788,4.7899,4.7949,4.7959,4.8018,4.8022,4.81,4.8094,4.8089,4.8089,4.8137,4.8132,4.8289,4.831,4.8176,4.8177,4.8179,0,4.7614,4.766,4.7701,4.7731,4.7752,4.78,4.783,4.7836,4.7868,4.7911,4.7946,4.7996,4.8036,4.8117,4.8136,4.8181,4.8176,4.8228,4.8183,4.8183,4.8178,4.8175,4.818,4.8237,4.8239,4.824,4.8241,0,4.773,4.7735,4.7779,4.7826,4.7863,4.79,4.7935,4.796,4.797,4.8006,4.8059,4.809,4.8152,4.8202,4.8247,4.8266,4.8256,4.8255,4.8269,4.827,4.8265,4.8269,4.8113,4.8251,4.825,4.8249,4.8249,4.8248,4.7813,4.7853,4.7889,4.7939,4.7966,4.8,4.804,4.8057,4.8101,4.8153,4.8153,4.8211,4.8244,4.8305,4.8327,4.8371,4.8355,4.8374,4.838,4.8384,4.8389,4.8258,4.838,4.8379,4.8379,4.8379,4.8379,0,4.7929,4.7952,4.7998,4.8048,4.8087,4.8075,4.8113,4.8147,4.8198,4.8231,4.8271,4.8332,4.838,4.8403,4.845,4.8482,4.8478,4.8494,4.8492,4.8497,4.8401,4.8385,4.8496,4.8496,4.8496,4.8496,4.8496,4.8496,4.7994,4.8063,4.8072,4.8154,4.8176,4.8233,4.8256,4.8287,4.8313,4.8382,4.8423,4.8438,4.8466,4.8516,4.856,4.8565,4.8583,4.8602,4.8605,4.8515,4.8503,4.8492,4.8477,4.8606,4.8606,4.8697,4.8698,4.8698]}]]